Terminal Aerodrome Forecast
Issued by NWS Pueblo, CO

Home | Current Version | Previous Version | Text Only | Print | Product List | Glossary On
Versions: 1 2 3 4 5 6 7 8 9 10 11 12 13 14 15 16
000
FTUS45 KPUB 190807 AAA
TAFALS
TAF AMD
KALS 190807Z 1908/2006 20008KT P6SM SCT040 BKN070
     FM192000 25012KT P6SM VCSH BKN040
     FM200100 20008KT P6SM VCSH SCT040 BKN080
     FM200400 10006KT P6SM SCT040 BKN080=

USA.gov is the U.S. government's official web portal to all federal, state and local government web resources and services.